When you browse on this site, cookies collect data to enhance your experience and personalize the content and advertising you see.
Visit our Privacy Policy to learn more. By continuing to use the site, you agree to this use of cookies and data.
  • In Hungary
  • List of Countries
  • For 7 days
  • Water Temperature
  • Satellite Maps
  • Weather Map
  • News
  • Weather Widgets
  • user-avatar
    Login

    Hourly Weather proyezd Aldanskiy

    Today, 13 December, Thursday

    Time Temperature Precipitation Wind Pressure Humidity
    00:00 0°C° 0.5 mm 4 mps 718 mmHg 89%
    01:00 0°C° 0.1 mm 4 mps 719 mmHg 88%
    02:00 0°C° 0.1 mm 4 mps 719 mmHg 88%
    03:00 -1°C° 0 mm 5 mps 719 mmHg 88%
    04:00 -1°C° 0.2 mm 5 mps 719 mmHg 88%
    05:00 -1°C° 0.2 mm 4 mps 720 mmHg 88%
    06:00 -1°C° 0.2 mm 4 mps 720 mmHg 87%
    07:00 -1°C° 0 mm 4 mps 720 mmHg 88%
    08:00 -1°C° 0 mm 4 mps 721 mmHg 88%
    09:00 -2°C° 0 mm 4 mps 721 mmHg 88%
    10:00 -1°C° 0 mm 4 mps 721 mmHg 84%
    11:00 0°C° 0 mm 4 mps 722 mmHg 80%
    12:00 0°C° 0 mm 4 mps 722 mmHg 75%
    13:00 +1°C° 0 mm 4 mps 722 mmHg 74%
    14:00 +1°C° 0 mm 4 mps 722 mmHg 73%
    15:00 +1°C° 0 mm 4 mps 723 mmHg 72%
    16:00 +1°C° 0 mm 3 mps 723 mmHg 76%
    17:00 0°C° 0 mm 3 mps 724 mmHg 80%
    18:00 +1°C° 0 mm 2 mps 724 mmHg 84%
    19:00 +1°C° 0 mm 2 mps 724 mmHg 85%
    20:00 -1°C° 0 mm 2 mps 725 mmHg 86%
    21:00 -1°C° 0 mm 2 mps 725 mmHg 87%
    22:00 -1°C° 0 mm 2 mps 725 mmHg 88%
    23:00 -1°C° 0 mm 2 mps 725 mmHg 88%

    Tomorrow, 14 December, Friday

    Time Temperature Precipitation Wind Pressure Humidity
    00:00 -1°C° 0 mm 2 mps 725 mmHg 89%
    01:00 -1°C° 0 mm 2 mps 725 mmHg 89%
    02:00 -1°C° 0 mm 2 mps 725 mmHg 89%
    03:00 +1°C° 0 mm 1 mps 726 mmHg 89%
    04:00 +1°C° 0 mm 1 mps 726 mmHg 88%
    05:00 +1°C° 0 mm 1 mps 726 mmHg 88%
    06:00 +1°C° 0 mm 1 mps 726 mmHg 87%
    07:00 -1°C° 0 mm 2 mps 726 mmHg 85%
    08:00 -1°C° 0 mm 2 mps 726 mmHg 83%
    09:00 +1°C° 0 mm 2 mps 726 mmHg 80%
    10:00 +2°C° 0 mm 2 mps 726 mmHg 73%
    11:00 +2°C° 0 mm 3 mps 726 mmHg 67%
    12:00 +3°C° 0 mm 3 mps 726 mmHg 60%
    13:00 +3°C° 0 mm 3 mps 726 mmHg 61%
    14:00 +4°C° 0 mm 2 mps 726 mmHg 62%
    15:00 +4°C° 0 mm 2 mps 726 mmHg 63%
    16:00 +4°C° 0 mm 2 mps 726 mmHg 68%
    17:00 +4°C° 0 mm 1 mps 726 mmHg 73%
    18:00 +3°C° 0 mm 1 mps 727 mmHg 77%
    19:00 +3°C° 0.1 mm 1 mps 727 mmHg 78%
    20:00 +3°C° 0.1 mm 1 mps 727 mmHg 78%
    21:00 +3°C° 0.1 mm 1 mps 727 mmHg 79%
    22:00 +3°C° 0 mm 1 mps 727 mmHg 78%
    23:00 +3°C° 0 mm 1 mps 728 mmHg 78%

    Day after tomorrow, 15 December, Saturday

    Time Temperature Precipitation Wind Pressure Humidity
    00:00 +1°C° 0 mm 2 mps 728 mmHg 78%
    01:00 +1°C° 0 mm 2 mps 728 mmHg 78%
    02:00 +1°C° 0 mm 2 mps 728 mmHg 78%
    03:00 -1°C° 0 mm 2 mps 728 mmHg 79%
    04:00 -1°C° 0 mm 2 mps 728 mmHg 82%
    05:00 -1°C° 0 mm 2 mps 728 mmHg 86%
    06:00 -1°C° 0 mm 2 mps 729 mmHg 89%
    07:00 -1°C° 0 mm 2 mps 729 mmHg 89%
    08:00 -1°C° 0 mm 2 mps 729 mmHg 89%
    09:00 -1°C° 0 mm 2 mps 730 mmHg 89%
    10:00 +1°C° 0 mm 2 mps 730 mmHg 83%
    11:00 +2°C° 0 mm 2 mps 729 mmHg 77%
    12:00 +3°C° 0 mm 2 mps 729 mmHg 71%
    13:00 +3°C° 0 mm 2 mps 729 mmHg 70%
    14:00 +3°C° 0 mm 2 mps 729 mmHg 69%
    15:00 +3°C° 0 mm 2 mps 729 mmHg 67%
    16:00 +3°C° 0 mm 1 mps 730 mmHg 71%
    17:00 +3°C° 0 mm 1 mps 730 mmHg 76%
    18:00 +2°C° 0 mm 1 mps 730 mmHg 80%
    19:00 +1°C° 0 mm 1 mps 730 mmHg 81%
    20:00 +1°C° 0 mm 1 mps 730 mmHg 82%
    21:00 +1°C° 0 mm 1 mps 730 mmHg 83%
    22:00 +1°C° 0 mm 1 mps 730 mmHg 83%
    23:00 0°C° 0 mm 1 mps 730 mmHg 83%

    16 December, Sunday

    Time Temperature Precipitation Wind Pressure Humidity
    00:00 0°C° 0 mm 1 mps 730 mmHg 84%
    01:00 -2°C° 0 mm 2 mps 730 mmHg 85%
    02:00 -2°C° 0 mm 2 mps 730 mmHg 85%
    03:00 -2°C° 0 mm 2 mps 730 mmHg 86%
    04:00 -3°C° 0 mm 2 mps 730 mmHg 86%
    05:00 -4°C° 0 mm 3 mps 730 mmHg 87%
    06:00 -4°C° 0 mm 3 mps 729 mmHg 87%
    07:00 -4°C° 0 mm 3 mps 729 mmHg 86%
    08:00 -4°C° 0 mm 4 mps 729 mmHg 85%
    09:00 -3°C° 0 mm 4 mps 729 mmHg 83%
    10:00 -4°C° 0 mm 5 mps 729 mmHg 80%
    11:00 -2°C° 0 mm 5 mps 729 mmHg 76%
    12:00 -1°C° 0 mm 5 mps 728 mmHg 72%
    13:00 -2°C° 0 mm 6 mps 728 mmHg 72%
    14:00 -2°C° 0 mm 6 mps 728 mmHg 72%
    15:00 -2°C° 0 mm 6 mps 727 mmHg 72%
    16:00 -3°C° 0 mm 6 mps 727 mmHg 75%
    17:00 -4°C° 0 mm 6 mps 727 mmHg 78%
    18:00 -4°C° 0 mm 7 mps 727 mmHg 80%
    19:00 -6°C° 0 mm 7 mps 727 mmHg 81%
    20:00 -6°C° 0 mm 7 mps 727 mmHg 81%
    21:00 -6°C° 0 mm 7 mps 727 mmHg 81%
    22:00 -6°C° 0 mm 7 mps 727 mmHg 81%
    23:00 -6°C° 0 mm 8 mps 727 mmHg 80%

    17 December, Monday

    Time Temperature Precipitation Wind Pressure Humidity
    00:00 -6°C° 0 mm 8 mps 726 mmHg 80%
    01:00 -7°C° 0 mm 8 mps 726 mmHg 80%
    02:00 -7°C° 0 mm 8 mps 726 mmHg 80%
    03:00 -7°C° 0 mm 8 mps 726 mmHg 80%
    04:00 -6°C° 0 mm 8 mps 726 mmHg 80%
    05:00 -6°C° 0 mm 8 mps 726 mmHg 80%
    06:00 -6°C° 0 mm 9 mps 726 mmHg 79%
    07:00 -6°C° 0 mm 9 mps 726 mmHg 79%
    08:00 -5°C° 0 mm 9 mps 726 mmHg 79%
    09:00 -5°C° 0 mm 9 mps 725 mmHg 78%
    10:00 -4°C° 0 mm 9 mps 725 mmHg 77%
    11:00 -4°C° 0 mm 9 mps 725 mmHg 75%
    12:00 -3°C° 0 mm 9 mps 725 mmHg 73%
    13:00 -3°C° 0 mm 9 mps 725 mmHg 75%
    14:00 -3°C° 0 mm 9 mps 724 mmHg 76%
    15:00 -3°C° 0 mm 9 mps 724 mmHg 77%
    16:00 -4°C° 0 mm 9 mps 724 mmHg 80%
    17:00 -4°C° 0 mm 9 mps 724 mmHg 82%
    18:00 -4°C° 0 mm 9 mps 725 mmHg 84%
    19:00 -4°C° 0 mm 9 mps 725 mmHg 84%
    20:00 -4°C° 0 mm 9 mps 725 mmHg 84%
    21:00 -4°C° 0 mm 9 mps 725 mmHg 84%
    22:00 -4°C° 0 mm 9 mps 725 mmHg 85%
    23:00 -4°C° 0 mm 9 mps 725 mmHg 86%

    18 December, Tuesday

    Time Temperature Precipitation Wind Pressure Humidity
    00:00 -4°C° 0 mm 8 mps 725 mmHg 86%
    01:00 -4°C° 0 mm 8 mps 725 mmHg 86%
    02:00 -4°C° 0 mm 8 mps 725 mmHg 86%
    03:00 -4°C° 0 mm 8 mps 725 mmHg 85%
    04:00 -4°C° 0 mm 8 mps 725 mmHg 85%
    05:00 -3°C° 0 mm 7 mps 725 mmHg 86%
    06:00 -3°C° 0 mm 7 mps 725 mmHg 86%
    07:00 -3°C° 0 mm 7 mps 725 mmHg 85%
    08:00 -3°C° 0 mm 7 mps 725 mmHg 85%
    09:00 -3°C° 0 mm 7 mps 725 mmHg 85%
    10:00 -2°C° 0 mm 7 mps 725 mmHg 83%
    11:00 -2°C° 0 mm 7 mps 725 mmHg 81%
    12:00 -1°C° 0 mm 7 mps 725 mmHg 80%
    13:00 -1°C° 0 mm 7 mps 725 mmHg 80%
    14:00 -2°C° 0 mm 7 mps 725 mmHg 81%
    15:00 -2°C° 0 mm 7 mps 725 mmHg 82%
    16:00 -2°C° 0 mm 7 mps 725 mmHg 84%
    17:00 -2°C° 0 mm 7 mps 725 mmHg 85%
    18:00 -3°C° 0 mm 7 mps 726 mmHg 87%
    19:00 -3°C° 0 mm 6 mps 726 mmHg 87%
    20:00 -3°C° 0 mm 6 mps 726 mmHg 87%
    21:00 -3°C° 0 mm 6 mps 726 mmHg 87%
    22:00 -3°C° 0 mm 6 mps 726 mmHg 88%
    23:00 -3°C° 0 mm 6 mps 726 mmHg 88%
    Show more